Sallisaw, OK

9:32 PM CDT on March 22, 2017 (GMT -0500)
Sallisaw Municipal

Weather History for KJSV - February, 2014

Change the Weather History Date:

Sunday, February 9, 2014

  Actual Average Record
Temperature  
Mean Temperature 34 °F -  
Max Temperature 37 °F 50 °F 80 °F (1957)
Min Temperature 32 °F 27 °F 4 °F (1979)
Degree Days  
Heating Degree Days 30    
Moisture  
Dew Point 32 °F    
Average Humidity 94    
Maximum Humidity 100    
Minimum Humidity 81    
Precipitation  
Precipitation 0.00 in - - ()
Sea Level Pressure  
Sea Level Pressure 30.17 in    
Wind  
Wind Speed 2 mph (ENE)    
Max Wind Speed 10 mph    
Max Gust Speed -    
Visibility 4 miles    
Events      
Averages and records for this station are not official NWS values.
T = Trace of Precipitation, MM = Missing Value Source: NWS Daily Summary

Daily Weather History Graph

Daily Weather History Graph

Search for Another Location

Airport or City:

Trip Planner

Search our weather history database for the weather conditions in past years. The results will help you decide how hot, cold, wet, or windy it might be!

Date:

Astronomy

Feb. 09, 2014 Rise Set
Actual Time 7:11 AM CST 5:55 PM CST
Civil Twilight 6:45 AM CST 6:21 PM CST
Nautical Twilight 6:15 AM CST 6:51 PM CST
Astronomical Twilight 5:45 AM CST 7:21 PM CST
Moon 1:39 PM CST (2/9) 3:14 AM CST (2/9)
Length of Visible Light 11h 36m
Length of Day
10h 43m
Waxing Gibbous, 77% of the Moon is Illuminated
Feb 9
Waxing Gibbous
Feb 14
Full
Feb 22
Last Quarter
Mar 1
New
Mar 8
First Quarter

Hourly Weather History & Observations

Time (CST) Temp. Windchill Dew Point Humidity Pressure Visibility Wind Dir Wind Speed Gust Speed Precip Events Conditions
12:15 AM 32.0 °F 28.7 °F 32.0 °F 100% 30.15 in 2.0 mi East 3.5 mph - N/A   Overcast
12:35 AM 32.0 °F - 32.0 °F 100% 30.16 in 1.8 mi Calm Calm - N/A   Overcast
12:55 AM 32.0 °F - 32.0 °F 100% 30.16 in 1.8 mi Calm Calm - N/A   Overcast
1:15 AM 32.0 °F - 32.0 °F 100% 30.17 in 1.8 mi Calm Calm - N/A   Overcast
1:35 AM 32.0 °F - 32.0 °F 100% 30.17 in 1.5 mi Calm Calm - N/A   Overcast
1:55 AM 32.0 °F - 32.0 °F 100% 30.16 in 1.5 mi Calm Calm - N/A   Overcast
2:15 AM 32.0 °F - 32.0 °F 100% 30.16 in 1.8 mi Calm Calm - N/A   Overcast
2:35 AM 32.0 °F - 32.0 °F 100% 30.16 in 1.8 mi Calm Calm - N/A   Overcast
2:55 AM 32.0 °F 28.7 °F 32.0 °F 100% 30.15 in 1.8 mi East 3.5 mph - N/A   Overcast
3:15 AM 32.0 °F 28.7 °F 32.0 °F 100% 30.14 in 1.5 mi East 3.5 mph - N/A   Overcast
3:35 AM 32.0 °F 28.7 °F 32.0 °F 100% 30.13 in 2.0 mi East 3.5 mph - N/A   Overcast
3:55 AM 32.0 °F 28.7 °F 32.0 °F 100% 30.13 in 2.0 mi East 3.5 mph - N/A   Overcast
4:15 AM 32.0 °F - 32.0 °F 100% 30.15 in 2.5 mi Calm Calm - N/A   Mostly Cloudy
4:35 AM 32.0 °F - 32.0 °F 100% 30.15 in 3.0 mi Calm Calm - N/A   Overcast
4:55 AM 32.0 °F - 32.0 °F 100% 30.14 in 2.5 mi Calm Calm - N/A   Overcast
5:15 AM 32.0 °F - 32.0 °F 100% 30.15 in 2.0 mi Calm Calm - N/A   Overcast
5:35 AM 32.0 °F - 32.0 °F 100% 30.15 in 2.5 mi Calm Calm - N/A   Mostly Cloudy
5:55 AM 32.0 °F - 32.0 °F 100% 30.15 in 2.5 mi Calm Calm - N/A   Overcast
6:15 AM 32.0 °F - 32.0 °F 100% 30.15 in 2.5 mi Calm Calm - N/A   Mostly Cloudy
6:35 AM 32.0 °F - 32.0 °F 100% 30.17 in 2.0 mi Calm Calm - N/A   Overcast
6:55 AM 32.0 °F - 32.0 °F 100% 30.17 in 2.0 mi Calm Calm - N/A   Overcast
7:15 AM 32.0 °F - 32.0 °F 100% 30.18 in 1.5 mi Calm Calm - N/A   Overcast
7:35 AM 32.0 °F - 32.0 °F 100% 30.19 in 1.2 mi Calm Calm - N/A   Overcast
7:55 AM 32.0 °F - 32.0 °F 100% 30.17 in 1.2 mi Calm Calm - N/A   Overcast
8:15 AM 32.0 °F 28.7 °F 32.0 °F 100% 30.16 in 1.2 mi East 3.5 mph - N/A   Overcast
8:35 AM 32.0 °F 28.7 °F 32.0 °F 100% 30.17 in 3.0 mi ENE 3.5 mph - N/A   Overcast
8:55 AM 33.8 °F 29.6 °F 33.8 °F 100% 30.17 in 5.0 mi ENE 4.6 mph - N/A   Overcast
9:15 AM 33.8 °F 29.6 °F 32.0 °F 93% 30.19 in 7.0 mi ENE 4.6 mph - N/A   Overcast
9:35 AM 33.8 °F 27.7 °F 32.0 °F 93% 30.19 in 7.0 mi East 6.9 mph - N/A   Overcast
9:55 AM 33.8 °F 27.7 °F 32.0 °F 93% 30.20 in 7.0 mi East 6.9 mph - N/A   Overcast
10:15 AM 35.6 °F 29.9 °F 32.0 °F 87% 30.18 in 7.0 mi ENE 6.9 mph - N/A   Overcast
10:35 AM 35.6 °F 28.0 °F 32.0 °F 87% 30.18 in 7.0 mi ENE 10.4 mph - N/A   Overcast
10:55 AM 35.6 °F 31.7 °F 32.0 °F 87% 30.20 in 7.0 mi East 4.6 mph - N/A   Overcast
11:15 AM 35.6 °F 29.9 °F 32.0 °F 87% 30.18 in 7.0 mi East 6.9 mph - N/A   Overcast
11:35 AM 37.4 °F 32.8 °F 32.0 °F 81% 30.17 in 7.0 mi East 5.8 mph - N/A   Overcast
11:55 AM 35.6 °F 29.2 °F 32.0 °F 87% 30.17 in 7.0 mi East 8.1 mph - N/A   Overcast
12:15 PM 37.4 °F 32.1 °F 32.0 °F 81% 30.16 in 7.0 mi East 6.9 mph - N/A   Overcast
12:35 PM 37.4 °F 32.1 °F 32.0 °F 81% 30.16 in 7.0 mi East 6.9 mph - N/A   Overcast
12:55 PM 37.4 °F 32.8 °F 32.0 °F 81% 30.15 in 7.0 mi ESE 5.8 mph - N/A   Overcast
1:15 PM 37.4 °F 33.8 °F 32.0 °F 81% 30.16 in 7.0 mi ENE 4.6 mph - N/A   Overcast
1:35 PM 37.4 °F 34.9 °F 32.0 °F 81% 30.15 in 7.0 mi SE 3.5 mph - N/A   Overcast
1:55 PM 37.4 °F 34.9 °F 32.0 °F 81% 30.14 in 7.0 mi East 3.5 mph - N/A   Overcast
2:15 PM 37.4 °F 34.9 °F 32.0 °F 81% 30.16 in 7.0 mi East 3.5 mph - N/A   Overcast
2:35 PM 37.4 °F 34.9 °F 32.0 °F 81% 30.15 in 7.0 mi NE 3.5 mph - N/A   Overcast
2:55 PM 37.4 °F - 32.0 °F 81% 30.15 in 10.0 mi Calm Calm - N/A   Overcast
3:15 PM 37.4 °F 34.9 °F 32.0 °F 81% 30.14 in 10.0 mi NNE 3.5 mph - N/A   Overcast
3:35 PM 37.4 °F 34.9 °F 32.0 °F 81% 30.14 in 10.0 mi NE 3.5 mph - N/A   Overcast
3:55 PM 37.4 °F 34.9 °F 32.0 °F 81% 30.15 in 10.0 mi NNE 3.5 mph - N/A   Overcast
4:15 PM 37.4 °F 34.9 °F 32.0 °F 81% 30.16 in 5.0 mi NNE 3.5 mph - N/A   Overcast
4:35 PM 35.6 °F - 32.0 °F 87% 30.16 in 4.0 mi Calm Calm - N/A   Overcast
4:55 PM 35.6 °F 32.8 °F 32.0 °F 87% 30.17 in 3.0 mi North 3.5 mph - N/A   Overcast
5:15 PM 35.6 °F 32.8 °F 33.8 °F 93% 30.17 in 1.8 mi NE 3.5 mph - N/A   Overcast
5:35 PM 35.6 °F 32.8 °F 33.8 °F 93% 30.18 in 1.8 mi NE 3.5 mph - N/A   Overcast
5:55 PM 35.6 °F 31.7 °F 33.8 °F 93% 30.18 in 2.0 mi NNE 4.6 mph - N/A   Overcast
6:15 PM 33.8 °F 30.8 °F 33.8 °F 100% 30.18 in 3.0 mi NE 3.5 mph - N/A   Overcast
6:35 PM 33.8 °F - 33.8 °F 100% 30.19 in 3.0 mi Calm Calm - N/A   Overcast
6:55 PM 33.8 °F - 33.8 °F 100% 30.20 in 3.0 mi Calm Calm - N/A   Overcast
7:15 PM 33.8 °F 30.8 °F 33.8 °F 100% 30.20 in 2.5 mi NE 3.5 mph - N/A   Overcast
7:35 PM 33.8 °F - 33.8 °F 100% 30.20 in 3.0 mi Calm Calm - N/A   Overcast
7:55 PM 33.8 °F - 33.8 °F 100% 30.20 in 3.0 mi Calm Calm - N/A   Overcast
8:15 PM 33.8 °F - 33.8 °F 100% 30.21 in 3.0 mi Calm Calm - N/A   Overcast
8:35 PM 33.8 °F - 33.8 °F 100% 30.21 in 4.0 mi Calm Calm - N/A   Overcast
8:55 PM 33.8 °F - 32.0 °F 93% 30.22 in 4.0 mi Calm Calm - N/A   Overcast
9:15 PM 33.8 °F - 32.0 °F 93% 30.23 in 4.0 mi Calm Calm - N/A   Overcast
9:35 PM 33.8 °F 30.8 °F 32.0 °F 93% 30.22 in 3.0 mi ENE 3.5 mph - N/A   Overcast
9:55 PM 33.8 °F 29.6 °F 32.0 °F 93% 30.22 in 2.5 mi ENE 4.6 mph - N/A   Overcast
10:15 PM 33.8 °F 30.8 °F 33.8 °F 100% 30.22 in 2.0 mi ENE 3.5 mph - N/A   Overcast
10:35 PM 33.8 °F 30.8 °F 33.8 °F 100% 30.23 in 2.0 mi NE 3.5 mph - N/A   Overcast
10:55 PM 33.8 °F 30.8 °F 33.8 °F 100% 30.23 in 2.5 mi NE 3.5 mph - N/A   Overcast
11:15 PM 33.8 °F 29.6 °F 33.8 °F 100% 30.22 in 3.0 mi ENE 4.6 mph - N/A   Overcast
11:35 PM 33.8 °F 30.8 °F 33.8 °F 100% 30.23 in 3.0 mi NE 3.5 mph - N/A   Overcast
11:55 PM 33.8 °F - 33.8 °F 100% 30.23 in 3.0 mi Calm Calm - N/A   Overcast